Location: Ellerstadt
(49.4644°N, 8.2615°E)
Time: 01:45:38
(UTC+00:00)

Vanguard 1 Rocket - All Passes

Search period start: 13 June 2021 00:00
Search period end: 23 June 2021 00:00
Orbit: 651 x 4225 km, 34.3° (Epoch: 12 June)

Date Brightness Start Highest point End Pass type
(mag) Time Alt. Az. Time Alt. Az. Time Alt. Az.
13 Jun - 01:11:34 10° WSW 01:27:24 51° S 01:51:20 10° ESE visible
13 Jun - 03:38:13 10° W 03:56:57 41° SSW 04:19:29 10° SSE daylight
13 Jun - 06:10:17 10° W 06:24:57 20° SW 06:39:44 10° SSW daylight
13 Jun - 21:38:24 10° SSW 21:47:51 30° SE 22:03:12 10° E visible
14 Jun - 00:00:36 10° WSW 00:14:07 49° S 00:36:29 10° ESE visible
14 Jun - 02:25:51 10° W 02:43:09 46° SSW 03:06:47 10° SE visible
14 Jun - 04:54:40 10° W 05:12:05 28° SW 05:31:09 10° S daylight
14 Jun - 20:30:13 10° S 20:36:58 19° SE 20:46:39 10° E visible
14 Jun - 22:50:15 10° SW 23:01:34 42° SSE 23:21:05 10° E visible
15 Jun - 01:14:15 10° WSW 01:29:29 49° S 01:52:57 10° ESE visible
15 Jun - 03:41:05 10° W 03:58:42 36° SSW 04:20:20 10° SSE daylight
15 Jun - 06:15:20 10° WSW 06:26:18 15° SW 06:37:34 10° SSW daylight
15 Jun - 21:40:35 10° SSW 21:49:49 33° SSE 22:05:23 10° E visible
16 Jun - 00:03:15 10° WSW 00:16:16 48° S 00:38:14 10° ESE visible
16 Jun - 02:28:38 10° W 02:45:06 42° SSW 03:07:58 10° SE visible
16 Jun - 04:58:12 10° W 05:13:38 23° SW 05:30:49 10° S daylight
16 Jun - 20:31:52 10° S 20:38:51 22° SE 20:49:25 10° E visible
16 Jun - 22:52:49 10° SW 23:03:44 44° SSE 23:22:58 10° ESE visible
17 Jun - 01:17:00 10° WSW 01:31:36 46° S 01:54:22 10° SE visible
17 Jun - 03:44:09 10° W 04:00:28 31° SSW 04:20:45 10° SSE daylight
17 Jun - 06:25:48 10° WSW 06:27:43 10° SW 06:29:38 10° SW daylight
17 Jun - 19:25:53 10° SE 19:28:31 11° SE 19:31:31 10° ESE daylight
17 Jun - 21:42:58 10° SW 21:51:56 35° SSE 22:07:30 10° E visible
18 Jun - 00:05:58 10° WSW 00:18:30 47° S 00:39:51 10° ESE visible
18 Jun - 02:31:33 10° W 02:47:05 38° SSW 03:08:50 10° SSE visible
18 Jun - 05:02:28 10° W 05:15:13 18° SW 05:29:27 10° SSW daylight
18 Jun - 20:33:53 10° SSW 20:40:53 25° SE 20:51:56 10° E visible
18 Jun - 22:55:29 10° WSW 23:06:00 44° S 23:24:47 10° ESE visible
19 Jun - 01:19:50 10° WSW 01:33:46 42° SSW 01:55:35 10° SE visible
19 Jun - 03:47:33 10° W 04:02:16 26° SW 04:20:36 10° S daylight
19 Jun - 19:26:22 10° SSE 19:30:26 14° SE 19:35:39 10° ESE daylight
19 Jun - 21:45:30 10° SW 21:54:11 37° SSE 22:09:31 10° E visible
20 Jun - 00:08:47 10° WSW 00:20:48 44° S 00:41:20 10° ESE visible
20 Jun - 02:34:39 10° W 02:49:06 33° SSW 03:09:20 10° SSE visible
20 Jun - 05:08:25 10° WSW 05:16:52 13° SW 05:26:05 10° SSW daylight
20 Jun - 20:36:08 10° SSW 20:43:02 27° SSE 20:54:18 10° E visible
20 Jun - 22:58:14 10° WSW 23:08:20 43° S 23:26:30 10° ESE visible
21 Jun - 01:22:48 10° WSW 01:35:58 38° SSW 01:56:32 10° SE visible
21 Jun - 03:51:29 10° WSW 04:04:08 21° SW 04:19:39 10° S daylight
21 Jun - 19:27:52 10° S 19:32:30 17° SE 19:38:52 10° ESE daylight
21 Jun - 21:48:09 10° SW 21:56:31 38° SSE 22:11:28 10° ESE visible
22 Jun - 00:11:41 10° WSW 00:23:08 41° S 00:42:38 10° SE visible
22 Jun - 02:37:59 10° W 02:51:10 27° SSW 03:09:21 10° SSE visible
22 Jun - 20:38:35 10° SSW 20:45:20 29° SSE 20:56:34 10° ESE visible
22 Jun - 23:01:04 10° WSW 23:10:46 41° S 23:28:06 10° ESE visible
